Tracking 28529 objects as of 25-Feb-2024
HD Live streaming from Space Station
objects crossing your sky now

COSMOS 1823 DEB

Track COSMOS 1823 DEB now!
10-day predictions


NORAD ID: 39833
Int'l Code: 1987-020FH
Perigee: 1,419.2 km
Apogee: 1,455.4 km
Inclination: 73.8 °
Period: 114.4 minutes
Semi major axis: 7808 km
RCS: 0.0132 m2 (small)
Launch date: February 20, 1987
Source: Commonwealth of Independent States (former USSR) (CIS)
Launch site: PLESETSK MISSILE AND SPACE COMPLEX (PKMTR)

Note: This is SATELLITE DEBRIS
Your satellite tracking list
Your tracking list is empty




NASA's NSSDC Master Catalog

Two Line Element Set (TLE):
1 39833U 87020FH  24054.61862576  .00000353  00000-0  21842-2 0  9999
2 39833  73.7787 178.5679 0023156 132.4095 227.8923 12.58247822446447
Source of the keplerian elements: AFSPC